#timestamp,LO_Frequency,Hit,StdDev 
1607072415.2,286046995.5,Y
1607072435.0,286046997.0,P
1607072435.9,286046997.0,P
1607072455.7,286046994.9,P
1607072475.6,286046995.5,Y
1607072495.4,286046996.6,P
1607072515.2,286046999.4,P
1607072535.1,286046999.4,N
1607072536.0,286046999.4,N
1607072555.8,286046999.4,N
1607072575.6,286047001.1,N
1607072595.5,286046996.7,N
1607072615.3,286046999.5,N
1607072635.1,286046997.4,N
1607072655.9,286046998.0,N
1607072675.7,286046997.6,N
1607072695.5,286046994.9,Y
1607072715.4,286046999.1,P
1607072735.2,286046998.9,P
1607072755.0,286046998.7,P
1607072756.0,286046998.7,Y
1607072775.8,286046998.3,P
1607072795.6,286046998.1,P
1607072815.5,286046999.5,N
1607072835.3,286046997.3,Y
1607072855.1,286046996.5,P
1607072875.9,286046997.4,N
1607072895.7,286046997.0,P
1607072915.5,286046997.4,Y
1607072935.4,286046998.7,P
1607072955.2,286046999.6,N
1607072975.0,286046996.6,P
1607072975.9,286046996.6,N
1607072995.8,286046997.4,N
1607073015.6,286046998.0,N
1607073035.4,286046999.5,N
1607073055.3,286046997.1,N
1607073075.1,286046996.7,Y
1607073076.0,286046996.7,P
1607073095.8,286047002.5,P
1607073115.7,286047000.2,N
1607073135.5,286047002.7,N
1607073155.3,286047002.1,N
1607073175.2,286046999.9,N
1607073195.9,286047000.9,N
1607073215.7,286047000.8,N
1607073235.6,286047000.9,N
1607073255.4,286047000.8,N
1607073275.2,286046998.9,N
1607073295.1,286046999.3,N
1607073296.0,286046999.3,N
1607073315.8,286046999.4,N
1607073335.6,286046999.2,N
1607073355.5,286046996.5,N
1607073375.3,286046997.9,N
1607073395.1,286046997.6,N
1607073415.9,286046995.4,N
1607073435.7,286046996.1,N
1607073455.5,286046994.9,N
1607073475.4,286046996.2,N
1607073495.2,286046995.9,N
1607073515.0,286046995.2,N
1607073515.9,286046995.2,N
1607073535.8,286046994.9,N
1607073555.6,286046995.8,N
1607073575.4,286046993.9,N
1607073595.3,286046995.9,N
1607073615.1,286046993.6,N
1607073616.0,286046993.6,N
1607073635.8,286046986.3,Y
1607073655.7,286046993.3,P
1607073675.5,286046995.3,N
1607073695.3,286046996.2,N
1607073715.2,286046993.8,Y
1607073735.0,286046998.8,P
1607073735.9,286046998.8,N
1607073755.7,286046999.1,N
1607073775.6,286046997.8,N
1607073795.4,286046997.7,N
1607073815.2,286046999.2,N
1607073835.1,286047001.1,N
1607073836.0,286047001.1,N
1607073855.8,286047000.1,N
1607073875.6,286047000.4,N
1607073895.5,286046998.1,N
1607073915.3,286046999.5,N
1607073935.1,286046997.0,N
1607073955.9,286046997.3,N
1607073975.7,286046995.4,Y
1607073995.5,286046997.9,P
1607074015.4,286046997.2,P
1607074035.2,286046999.6,N
1607074055.0,286046997.4,N
1607074055.9,286046997.4,N
1607074075.8,286046997.7,N
1607074095.6,286046997.2,Y
1607074115.4,286046996.6,P
1607074135.3,286046999.3,N
1607074155.1,286046999.6,N
1607074175.8,286046999.5,N
1607074195.7,286046998.6,N
1607074215.5,286046996.5,Y
1607074235.3,286046998.2,P
1607074255.2,286046997.6,P
1607074275.0,286046995.4,P
1607074275.9,286046995.4,Y
1607074295.7,286046998.6,P
1607074315.6,286046998.7,N
1607074335.4,286046998.4,N
1607074355.2,286047000.3,N
1607074375.1,286047000.1,N
1607074376.0,286047000.1,N
1607074395.8,286047000.6,N
1607074415.6,286047001.1,N
1607074435.5,286047001.0,N
1607074455.3,286047000.9,N
1607074475.1,286046998.1,N
1607074495.9,286046998.3,N
1607074515.7,286046999.3,N
1607074535.5,286046996.9,N
1607074555.4,286046997.9,N
1607074575.2,286046995.1,Y
1607074595.0,286046997.4,P
1607074595.9,286046997.4,N
1607074615.8,286046999.5,N
1607074635.6,286046999.6,N
1607074655.5,286046996.7,Y
1607074675.3,286046999.2,P
1607074695.1,286046998.4,P
1607074715.8,286046998.9,P
1607074735.7,286046999.0,Y
1607074755.5,286047002.7,P
1607074775.4,286047000.4,N
1607074795.2,286046999.3,N
1607074815.0,286046999.0,N
1607074815.9,286046999.0,N
1607074835.8,286046997.9,N
1607074855.6,286046997.7,N
1607074875.4,286046995.4,Y
1607074895.3,286046997.5,P
1607074915.1,286046997.4,N
1607074916.0,286046997.4,N
1607074935.8,286046997.5,Y
1607074955.7,286047001.0,P
1607074975.5,286047000.3,N
1607074995.3,286047000.2,N
1607075015.2,286046999.7,N
1607075035.9,286047001.9,N
1607075055.7,286047002.4,N
1607075075.6,286047000.0,N
1607075095.4,286047002.7,N
1607075115.2,286046999.8,N
1607075135.1,286047002.7,N
1607075136.0,286047002.7,N
1607075155.8,286046998.1,N
1607075175.6,286046998.4,N
1607075195.5,286046998.9,N
1607075215.3,286046998.8,N
1607075235.1,286046998.6,N
1607075255.9,286047001.0,N
1607075275.7,286047002.7,N
1607075295.5,286047000.4,N
1607075315.4,286046998.4,N
1607075335.2,286046998.6,N
1607075355.0,286046998.6,N
1607075355.9,286046998.6,N
1607075375.8,286047000.9,N
1607075395.6,286046998.6,N
1607075415.4,286047001.1,N
1607075435.3,286046998.6,N
1607075455.1,286046998.3,N
1607075456.0,286046998.3,N
1607075475.8,286046998.1,N
1607075495.7,286046998.2,N
1607075515.5,286046998.3,N
1607075535.3,286046998.8,N
1607075555.2,286046997.5,N
1607075575.9,286046997.0,N
1607075595.7,286046997.3,N
1607075615.6,286046997.9,N
1607075635.4,286046997.4,N
1607075655.2,286046997.9,N
1607075675.1,286046995.1,Y
1607075676.0,286046995.1,P
1607075695.8,286046997.2,N
1607075715.6,286046996.8,N
1607075735.5,286046996.9,N
1607075755.3,286046998.0,N
1607075775.1,286046999.6,N
1607075795.9,286046997.1,N
1607075815.7,286046998.7,N
1607075835.5,286046998.9,N
1607075855.4,286046998.9,N
1607075875.2,286046999.4,N
1607075895.0,286046999.1,N
1607075895.9,286046999.1,N
1607075915.8,286046997.1,N
1607075935.6,286046997.0,N
1607075955.4,286046997.6,N
1607075975.3,286046995.5,Y
1607075995.1,286046999.0,P
1607075996.0,286046999.0,N
